Flight Track Log - Related Links

Times and Time Zones

All times are in EDT time to prevent confusion due to time zone crossing. See the SWA534 flight status page for this flight to view local times or setup timezone preferences in your user account.

Time Position Orientation Groundspeed Altitude Reporting Facility
EDT Latitude Longitude Course Direction KTS MPH feet Rate Location/Type
Fri 07:06:54 PM 37.7667 -122.3000 310° West 212 244 3,100  Level Northern Cal TRACON
Fri 07:08:41 PM 37.8328 -122.4053 309° West 240 276 7,000 2,592 Climbing Oakland Center
Fri 07:09:43 PM 37.9175 -122.4342 345° North 289 333 10,400 2,710 Climbing Oakland Center
Fri 07:10:45 PM 38.0081 -122.4381 358° North 327 376 12,600 2,439 Climbing Oakland Center
Fri 07:11:46 PM 38.1044 -122.4436 357° North 348 400 15,400 2,390 Climbing Oakland Center
Fri 07:12:48 PM 38.2042 -122.4481 358° North 360 414 17,500 2,177 Climbing Oakland Center
Fri 07:13:50 PM 38.3089 -122.4531 358° North 376 433 19,900 2,371 Climbing Oakland Center
Fri 07:14:52 PM 38.4394 -122.4592 358° North 391 450 22,400 2,000 Climbing Oakland Center
Fri 07:15:53 PM 38.5536 -122.4639 358° North 408 470 24,000 1,756 Climbing Oakland Center
Fri 07:16:55 PM 38.6717 -122.4700 358° North 423 487 26,000 1,645 Climbing Oakland Center
Fri 07:17:57 PM 38.7831 -122.4750 358° North 424 488 27,400 1,403 Climbing Oakland Center
Fri 07:18:59 PM 38.9058 -122.4822 357° North 434 499 28,900 1,268 Climbing Oakland Center
Fri 07:20:00 PM 39.0578 -122.4903 358° North 448 516 30,000 537 Climbing Oakland Center
Fri 07:21:02 PM 39.1878 -122.4956 358° North 460 529 30,000  Level Oakland Center
Fri 07:22:04 PM 39.3203 -122.5025 358° North 471 542 30,000 195 Level Oakland Center
Fri 07:23:05 PM 39.4508 -122.5075 358° North 470 541 30,400 1,366 Climbing Oakland Center
Fri 07:24:07 PM 39.5747 -122.5139 358° North 453 521 32,800 1,694 Climbing Oakland Center
Fri 07:25:09 PM 39.6972 -122.5208 358° North 443 510 33,900 1,113 Climbing Oakland Center
Fri 07:26:11 PM 39.8222 -122.5281 357° North 446 513 35,100 1,024 Climbing Oakland Center
Fri 07:27:12 PM 39.9719 -122.5353 358° North 445 512 36,000 439 Climbing Oakland Center
Fri 07:28:14 PM 40.1017 -122.5439 357° North 454 522 36,000  Level Oakland Center
Fri 07:29:16 PM 40.2328 -122.5481 359° North 460 529 36,000  Level Oakland Center
Fri 07:30:18 PM 40.3614 -122.5544 358° North 458 527 36,000  Level Oakland Center
Fri 07:31:19 PM 40.4881 -122.5600 358° North 454 522 36,000  Level Oakland Center
Fri 07:32:21 PM 40.6161 -122.5667 358° North 458 527 36,000  Level Oakland Center
Fri 07:33:22 PM 40.7439 -122.5733 358° North 460 529 36,000  Level Oakland Center
Fri 07:34:24 PM 40.8733 -122.5792 358° North 466 536 36,000  Level Oakland Center
Fri 07:35:26 PM 41.0019 -122.5867 357° North 463 533 36,000  Level Oakland Center
Fri 07:36:27 PM 41.1297 -122.5936 358° North 460 529 36,000  Level Oakland Center
Fri 07:37:29 PM 41.2822 -122.6008 358° North 457 526 36,000  Level Oakland Center
Fri 07:38:31 PM 41.3958 -122.6058 358° North 457 526 36,000  Level Oakland Center
Fri 07:39:04 PM 41.4744 -122.6108 357° North 459 528 36,000  Level Seattle Center
Fri 07:40:05 PM 41.6036 -122.6172 358° North 462 532 36,000  Level Seattle Center
Fri 07:41:07 PM 41.7328 -122.6228 358° North 463 533 36,000  Level Seattle Center
Fri 07:42:08 PM 41.8614 -122.6289 358° North 462 532 36,000  Level Seattle Center
Fri 07:43:09 PM 41.9903 -122.6353 358° North 462 532 36,000  Level Seattle Center
Fri 07:44:10 PM 42.1208 -122.6425 358° North 465 535 36,000  Level Seattle Center
Fri 07:45:11 PM 42.2481 -122.6472 358° North 458 527 36,000  Level Seattle Center
Fri 07:46:13 PM 42.3772 -122.6533 358° North 461 531 36,000  Level Seattle Center
Fri 07:47:14 PM 42.5039 -122.6614 357° North 455 524 36,000  Level Seattle Center
Fri 07:48:15 PM 42.6581 -122.6686 358° North 461 531 36,000  Level Seattle Center
Fri 07:49:16 PM 42.7758 -122.6750 358° North 457 526 36,000  Level Seattle Center
Fri 07:50:18 PM 42.9011 -122.6822 358° North 451 519 36,000  Level Seattle Center
Fri 07:51:19 PM 43.0264 -122.6886 358° North 451 519 36,000  Level Seattle Center
Fri 07:52:20 PM 43.1500 -122.6956 358° North 447 514 36,000 -98 Level Seattle Center
Fri 07:53:22 PM 43.2728 -122.7031 357° North 444 511 35,800 -634 Descending Seattle Center
Fri 07:54:23 PM 43.4222 -122.7114 358° North 448 516 34,700 -984 Descending Seattle Center
Fri 07:55:24 PM 43.5494 -122.7189 358° North 457 526 33,800 -836 Descending Seattle Center
Fri 07:56:25 PM 43.6756 -122.7261 358° North 454 522 33,000 -390 Descending Seattle Center
Fri 07:57:27 PM 43.8042 -122.7319 358° North 461 531 33,000  Level Seattle Center
Fri 07:58:28 PM 43.9303 -122.7400 357° North 457 526 33,000 -934 Level Seattle Center
Fri 07:59:29 PM 44.0586 -122.7478 358° North 462 532 31,100 -2,361 Descending Seattle Center
Fri 08:00:30 PM 44.1886 -122.7494 359° North 471 542 28,200 -2,683 Descending Seattle Center
Fri 08:01:32 PM 44.3150 -122.7361 North 461 531 25,600 -2,732 Descending Seattle Center
Fri 08:02:33 PM 44.4581 -122.7222 North 447 514 22,600 -2,607 Descending Seattle Center
Fri 08:03:34 PM 44.5758 -122.7108 North 432 497 20,300 -2,311 Descending Seattle Center
Fri 08:04:35 PM 44.6889 -122.6992 North 416 479 17,900 -2,361 Descending Seattle Center
Fri 08:05:36 PM 44.8006 -122.6897 North 403 464 15,500 -2,341 Descending Seattle Center
Fri 08:06:38 PM 44.9081 -122.6781 North 393 452 13,100 -1,805 Descending Seattle Center
Fri 08:07:39 PM 45.0111 -122.6681 North 374 430 11,800 -1,475 Descending Seattle Center
Fri 08:08:40 PM 45.1019 -122.6461 10° North 346 398 10,100 -1,377 Descending Seattle Center
Fri 08:09:41 PM 45.1817 -122.5967 24° Northeast 319 367 9,000 -1,366 Descending Seattle Center
Fri 08:10:43 PM 45.2742 -122.5394 24° Northeast 304 350 7,300 -1,512 Descending Seattle Center
Fri 08:11:44 PM 45.3506 -122.5083 16° North 293 337 5,900 -1,377 Descending Seattle Center
Fri 08:12:45 PM 45.4239 -122.4683 21° North 288 331 4,500 -1,082 Descending Seattle Center
Fri 08:13:46 PM 45.4931 -122.4258 23° Northeast 277 319 3,700 -585 Descending Seattle Center
Fri 08:14:48 PM 45.5322 -122.4522 335° Northwest 220 253 3,300 -1,122 Descending Seattle Center
Fri 08:15:49 PM 45.5472 -122.5031 293° West 156 180 1,400 -1,377 Descending Seattle Center
Fri 08:16:50 PM 45.5675 -122.5539 300° West 147 169 500 -885 Descending Seattle Center
Fri 08:18:00 PM 45.5833 -122.5833 North  Level FlightAware Approximate

Login

Don't have an account? Register now (free) for customized features, flight alerts, and more!